| time (UTC) | temp C | wind direction | speed KPH | gust KPH | rain 1hr cm | rain 24hr cm | rain mn cm | humidity % | barometer mb |
| 20260505200059 | 27 | 159 | 6.4 | 16.1 | 0.00 | 0.00 | 0.00 | 50 | 890.6 |
| 20260505200002 | 27 | 189 | 4.8 | 16.1 | 0.00 | 0.00 | 0.00 | 48 | 890.6 |
| 20260505194558 | 27 | 342 | 4.8 | 17.7 | 0.00 | 0.00 | 0.00 | 51 | 890.6 |
| 20260505193057 | 27 | 187 | 1.6 | 12.9 | 0.00 | 0.00 | 0.00 | 50 | 890.6 |
| 20260505191603 | 27 | 217 | 3.2 | 16.1 | 0.00 | 0.00 | 0.00 | 47 | 890.6 |
| 20260505184554 | 27 | 161 | 6.4 | 19.3 | 0.00 | 0.00 | 0.00 | 49 | 890.6 |
| 20260505183052 | 26 | 153 | 4.8 | 19.3 | 0.00 | 0.00 | 0.00 | 50 | 890.6 |
| 20260505181634 | 26 | 143 | 4.8 | 12.9 | 0.00 | 0.00 | 0.00 | 53 | 890.6 |
| 20260505174550 | 27 | 246 | 4.8 | 17.7 | 0.00 | 0.00 | 0.00 | 53 | 890.6 |
| 20260505173051 | 26 | 144 | 3.2 | 16.1 | 0.00 | 0.00 | 0.00 | 54 | 890.6 |
| 20260505171551 | 26 | 156 | 3.2 | 14.5 | 0.00 | 0.00 | 0.00 | 56 | 890.6 |
| 20260505170044 | 26 | 144 | 4.8 | 16.1 | 0.00 | 0.00 | 0.00 | 54 | 890.6 |
| 20260505164547 | 26 | 146 | 4.8 | 17.7 | 0.00 | 0.00 | 0.00 | 55 | 890.6 |
| 20260505163046 | 26 | 114 | 6.4 | 14.5 | 0.00 | 0.00 | 0.00 | 54 | 890.6 |
| 20260505161540 | 26 | 254 | 1.6 | 14.5 | 0.00 | 0.00 | 0.00 | 56 | 890.6 |
| 20260505153041 | 25 | 248 | 4.8 | 12.9 | 0.00 | 0.00 | 0.00 | 63 | 890.6 |
| 20260505151535 | 24 | 129 | 6.4 | 19.3 | 0.00 | 0.00 | 0.00 | 61 | 890.6 |
| 20260505124501 | 18 | 295 | 3.2 | 12.9 | 0.00 | 0.00 | 0.00 | 77 | 941.5 |
| 20260505123101 | 17 | 344 | 1.6 | 16.1 | 0.00 | 0.00 | 0.00 | 80 | 941.5 |
| 20260505121556 | 16 | 259 | 0.0 | 6.4 | 0.00 | 0.00 | 0.00 | 83 | 941.5 |
| 20260505120111 | 15 | 262 | 0.0 | 6.4 | 0.00 | 0.00 | 0.00 | 83 | 941.5 |
| 20260505114555 | 14 | 259 | 0.0 | 6.4 | 0.00 | 0.00 | 0.00 | 88 | 941.5 |
| 20260505113053 | 12 | 242 | 0.0 | 3.2 | 0.00 | 0.00 | 0.00 | 92 | 977.6 |
| 20260505111552 | 11 | 238 | 0.0 | 0.0 | 0.00 | 0.00 | 0.00 | 96 | 977.6 |
| 20260505110109 | 10 | 238 | 0.0 | 1.6 | 0.00 | 0.00 | 0.00 | 96 | 954.3 |
| 20260505101547 | 10 | 238 | 0.0 | 0.0 | 0.00 | 0.00 | 0.00 | 94 | 940.6 |
| 20260505100046 | 10 | 238 | 0.0 | 0.0 | 0.00 | 0.00 | 0.00 | 93 | 940.6 |
| 20260505094543 | 10 | 238 | 0.0 | 0.0 | 0.00 | 0.00 | 0.00 | 92 | 958.8 |
| 20260505093041 | 11 | 238 | 0.0 | 0.0 | 0.00 | 0.00 | 0.00 | 90 | 958.8 |
| 20260505091548 | 11 | 238 | 0.0 | 0.0 | 0.00 | 0.00 | 0.00 | 89 | 936.2 |
| 20260505090037 | 11 | 238 | 0.0 | 0.0 | 0.00 | 0.00 | 0.00 | 87 | 947.2 |
| 20260505084536 | 12 | 238 | 0.0 | 0.0 | 0.00 | 0.00 | 0.00 | 86 | 934.5 |
| 20260505083031 | 12 | 238 | 0.0 | 0.0 | 0.00 | 0.00 | 0.00 | 84 | 934.5 |
| 20260505081529 | 12 | 238 | 0.0 | 3.2 | 0.00 | 0.00 | 0.00 | 84 | 934.5 |
| 20260505080028 | 12 | 238 | 0.0 | 0.0 | 0.00 | 0.00 | 0.00 | 84 | 934.5 |
| 20260505074626 | 13 | 238 | 0.0 | 0.0 | 0.00 | 0.00 | 0.00 | 82 | 934.5 |
| 20260505073023 | 13 | 238 | 0.0 | 3.2 | 0.00 | 0.00 | 0.00 | 81 | 1078.5 |
| 20260505071525 | 13 | 238 | 0.0 | 3.2 | 0.00 | 0.00 | 0.00 | 80 | 1078.5 |
| 20260505070019 | 13 | 239 | 0.0 | 4.8 | 0.00 | 0.00 | 0.00 | 79 | 1078.5 |
| 20260505064515 | 14 | 208 | 0.0 | 1.6 | 0.00 | 0.00 | 0.00 | 78 | 1078.5 |
| 20260505063016 | 14 | 221 | 0.0 | 3.2 | 0.00 | 0.00 | 0.00 | 78 | 1078.5 |
| 20260505061513 | 15 | 238 | 0.0 | 3.2 | 0.00 | 0.00 | 0.00 | 77 | 1078.5 |
| 20260505060011 | 15 | 213 | 0.0 | 4.8 | 0.00 | 0.00 | 0.00 | 76 | 1078.5 |
| 20260505054517 | 15 | 240 | 0.0 | 6.4 | 0.00 | 0.00 | 0.00 | 76 | 1078.5 |
| 20260505053006 | 15 | 239 | 1.6 | 11.3 | 0.00 | 0.00 | 0.00 | 74 | 1078.5 |
| 20260505051507 | 16 | 211 | 0.0 | 6.4 | 0.00 | 0.00 | 0.00 | 73 | 1078.5 |
| 20260505041607 | 17 | 111 | 0.0 | 16.1 | 0.00 | 0.00 | 0.00 | 69 | 1078.5 |
| 20260505034609 | 17 | 182 | 0.0 | 9.7 | 0.00 | 0.00 | 0.00 | 70 | 1078.5 |
| 20260505033055 | 17 | 204 | 1.6 | 8.0 | 0.00 | 0.00 | 0.00 | 70 | 1078.5 |
| 20260505031554 | 17 | 174 | 1.6 | 8.0 | 0.00 | 0.00 | 0.00 | 70 | 1078.5 |
| 20260505024607 | 17 | 135 | 0.0 | 11.3 | 0.00 | 0.00 | 0.00 | 69 | 1078.5 |
| 20260505023052 | 18 | 149 | 3.2 | 11.3 | 0.00 | 0.00 | 0.00 | 68 | 1078.5 |
| 20260505021552 | 18 | 132 | 1.6 | 11.3 | 0.00 | 0.00 | 0.00 | 67 | 1078.5 |
| 20260505020104 | 18 | 175 | 3.2 | 11.3 | 0.00 | 0.00 | 0.00 | 67 | 1078.5 |
| 20260505014551 | 18 | 151 | 1.6 | 11.3 | 0.00 | 0.00 | 0.00 | 66 | 1078.5 |
| 20260505013050 | 19 | 149 | 4.8 | 12.9 | 0.00 | 0.00 | 0.00 | 65 | 1078.5 |
| 20260505011550 | 20 | 205 | 1.6 | 14.5 | 0.00 | 0.00 | 0.00 | 64 | 1078.5 |
| 20260505010107 | 20 | 164 | 4.8 | 12.9 | 0.00 | 0.00 | 0.00 | 64 | 1078.5 |
| 20260505004601 | 20 | 171 | 3.2 | 16.1 | 0.00 | 0.00 | 0.00 | 63 | 1078.5 |
| 20260505003052 | 21 | 139 | 8.0 | 22.5 | 0.00 | 0.00 | 0.00 | 61 | 1078.5 |
| 20260505001548 | 21 | 166 | 3.2 | 14.5 | 0.00 | 0.00 | 0.00 | 60 | 1078.5 |
| 20260505000051 | 21 | 130 | 6.4 | 27.4 | 0.00 | 0.00 | 0.00 | 53 | 1078.5 |
| 20260504234546 | 22 | 194 | 0.0 | 11.3 | 0.00 | 0.00 | 0.00 | 48 | 1078.5 |
| 20260504233048 | 23 | 151 | 1.6 | 8.0 | 0.00 | 0.00 | 0.00 | 46 | 1078.5 |
| 20260504231615 | 23 | 251 | 3.2 | 9.7 | 0.00 | 0.00 | 0.00 | 45 | 1078.5 |
| 20260504230045 | 23 | 174 | 1.6 | 17.7 | 0.00 | 0.00 | 0.00 | 44 | 1078.5 |
| 20260504224545 | 24 | 285 | 3.2 | 12.9 | 0.00 | 0.00 | 0.00 | 43 | 1078.5 |
| 20260504223047 | 25 | 131 | 0.0 | 19.3 | 0.00 | 0.00 | 0.00 | 44 | 1078.5 |
| 20260504221607 | 25 | 245 | 1.6 | 14.5 | 0.00 | 0.00 | 0.00 | 43 | 1078.5 |
| 20260504220042 | 26 | 145 | 4.8 | 17.7 | 0.00 | 0.00 | 0.00 | 42 | 1078.5 |
| 20260504214541 | 26 | 221 | 3.2 | 14.5 | 0.00 | 0.00 | 0.00 | 42 | 1078.5 |
| 20260504213044 | 26 | 183 | 4.8 | 14.5 | 0.00 | 0.00 | 0.00 | 37 | 1078.5 |
| 20260504211539 | 26 | 121 | 3.2 | 14.5 | 0.00 | 0.00 | 0.00 | 42 | 1078.5 |
| 20260504210046 | 27 | 264 | 3.2 | 9.7 | 0.00 | 0.00 | 0.00 | 41 | 1078.5 |
| 20260504204537 | 27 | 293 | 4.8 | 27.4 | 0.00 | 0.00 | 0.00 | 39 | 1078.5 |
| 20260504203037 | 26 | 141 | 3.2 | 16.1 | 0.00 | 0.00 | 0.00 | 38 | 1078.5 |
| 20260504201537 | 27 | 154 | 4.8 | 12.9 | 0.00 | 0.00 | 0.00 | 39 | 1078.5 |